THOR ABLESTAR DEB, 48823

Orbit data source: Space-Track

THOR ABLESTAR DEB, 48823 is space debris in LEO originally from a launch on Thu, 29 Jun 1961 UTC launched from the Air Force Eastern Test Range (AFETR). Debris objects in space refer to the collection of defunct objects orbiting the Earth. Examples of debris include non-operational satellites, rocket bodies, and fragments generated from explosions, collisions, or faulty payload assembly.

Loading next visibility...
Identifier
48823, 1961-015NB
Orbit
LEO
Country
Flag of USUS
Related business
Manufacturer
Unknown
Mission
Spacecraft
Bus & Motor
Unknown
Mass
Unknown
Launch date (UTC)
1961-06-29 (64 years ago)
Launch vehicle
Unknown
Launch site
Air Force Eastern Test Range (AFETR)
Object type
Payload
Rocket body
Debris
Shape & HBR
Unknown shape, 0.1 m
Radar Cross Section
Small (<0.1 m²)

Expand to show TLE details & history
Last TLE update: 3 days ago

TLE from 3 days ago
0 THOR ABLESTAR DEB
1 48823U 61015NB  25349.65183160  .00001106  00000-0  37828-3 0  9990
2 48823  66.6563 123.3032 0117344 214.6973 144.6436 14.36318283631350
Epoch: 2025-12-15T15:38Z
TLE epoch observation values (Epoch: 2025-12-15T15:38:38.250Z)
Latitude
0.00004°
Longitude
164.09651°
Altitude
841.547 km
Speed
7.397 km/s
True Right ascension
08h 13m 12s
True Declination
0° 00' 00"
Sunlit
Object was in full shadow at epoch
Visualization orbit readout
Latitude
Unknown
Longitude
Unknown
Altitude
Unknown
Speed
Unknown
Apparent Right ascension
Unknown
Apparent Declination
Unknown
Sunlit
N/A
Visualization observer readout
Local Sidereal Time
03:04:06
Azimuth
Unknown
Elevation
Unknown
Doppler factor
Unknown
Orbital elements
Apogee altitude
852.932 km
Perigee altitude
685.196 km
Semi-major axis
7,147.201 km
Eccentricity
0.01173
Inclination
66.6563°
RAAN
123.3032°
Arg. of periapsis
214.6973°
True anomaly
145.41248°
Mean anomaly
144.6436°
Eccentric anomaly
145.02896°
Mean motion
3.59202 °/min
Orbital period
100.22 mins
BSTAR
0.00037828

Documentation

Showing up to 5 results
|